Weather History for Hamilton, TX

Change the Weather History Date:

Tuesday, May 8, 2012

  Actual Average (KACT) Record (KACT)
Temperature  
Mean Temperature 64 °F 72 °F  
Max Temperature 66 °F 83 °F 96 °F (2011)
Min Temperature 60 °F 62 °F 45 °F (1938)
Degree Days  
Heating Degree Days 2 0  
Month to date heating degree days 4  
Since 1 July heating degree days 2140  
Cooling Degree Days 0 8  
Month to date cooling degree days 54  
Year to date cooling degree days 208  
Growing Degree Days 14 (Base 50)    
Moisture  
Dew Point 63 °F    
Average Humidity 96    
Maximum Humidity 100    
Minimum Humidity 84    
Precipitation  
Precipitation 0.12 in 0.13 in 4.02 in (1905)
Month to date precipitation 1.11  
Year to date precipitation 11.70  
Sea Level Pressure  
Sea Level Pressure 30.03 in    
Wind  
Wind Speed 9 mph (NNW)    
Max Wind Speed 17 mph    
Max Gust Speed 21 mph    
Visibility 9 miles    
Events Rain , Thunderstorm    
T = Trace of Precipitation, MM = Missing Value Source: NWS Daily Summary

Daily Weather History Graph

Daily Weather History Graph

Search for Another Location

Airport:

Trip Planner

Search our weather history database for the weather conditions in past years. The results will help you decide how hot, cold, wet, or windy it might be!

Date:

Astronomy

May. 08, 2012 Rise Set
Actual Time 6:40 AM CDT 8:17 PM CDT
Civil Twilight 6:14 AM CDT 8:44 PM CDT
Nautical Twilight 5:42 AM CDT 9:15 PM CDT
Astronomical Twilight 5:09 AM CDT 9:49 PM CDT
Moon 11:25 PM CDT (5/8) 8:55 AM CDT (5/8)
Length of Visible Light 14h 29m
Length of Day
13h 37m
Waning Gibbous, 90% of the Moon is Illuminated
May 8
Waning Gibbous
May 12
Last Quarter
May 20
New
May 28
First Quarter
Jun 4
Full

Hourly Weather History & Observations

Time (CDT) Temp. Dew Point Humidity Pressure Visibility Wind Dir Wind Speed Gust Speed Precip Events Conditions
12:35 AM 65.8 °F 63.3 °F 92% 29.96 in 10.0 mi North 11.5 mph - N/A   Clear
12:55 AM 66.2 °F 64.9 °F 96% 29.99 in 10.0 mi NNW 8.1 mph - N/A   Clear
1:15 AM 66.0 °F 65.7 °F 99% 29.98 in 10.0 mi North 9.2 mph - N/A   Scattered Clouds
1:35 AM 65.7 °F 65.7 °F 100% 29.95 in 10.0 mi NNE 10.4 mph - N/A Rain Light Rain
1:55 AM 65.5 °F 65.5 °F 100% 29.98 in 10.0 mi North 15.0 mph - N/A   Scattered Clouds
2:15 AM 65.3 °F 65.3 °F 100% 29.98 in 10.0 mi North 8.1 mph - N/A   Scattered Clouds
2:35 AM 65.3 °F 65.3 °F 100% 29.97 in 7.0 mi North 10.4 mph - N/A   Mostly Cloudy
2:55 AM 65.7 °F 65.7 °F 100% 29.97 in 7.0 mi North 10.4 mph - N/A   Overcast
3:15 AM 66.0 °F 66.0 °F 100% 29.98 in 7.0 mi North 9.2 mph 19.6 mph N/A   Overcast
3:35 AM 66.2 °F 66.2 °F 100% 29.99 in 7.0 mi NNE 9.2 mph - N/A   Overcast
3:55 AM 66.2 °F 66.2 °F 100% 30.02 in 7.0 mi North 8.1 mph - N/A   Overcast
4:15 AM 66.2 °F 66.2 °F 100% 30.03 in 7.0 mi NNE 8.1 mph - N/A   Overcast
4:35 AM 66.2 °F 66.2 °F 100% 30.02 in 7.0 mi North 6.9 mph - N/A   Overcast
4:55 AM 66.2 °F 66.2 °F 100% 30.01 in 7.0 mi North 9.2 mph - N/A   Overcast
5:15 AM 66.2 °F 66.2 °F 100% 30.01 in 7.0 mi North 8.1 mph - N/A   Overcast
5:35 AM 66.2 °F 66.2 °F 100% 30.02 in 7.0 mi North 5.8 mph - N/A   Overcast
5:55 AM 66.4 °F 66.4 °F 100% 30.01 in 10.0 mi North 5.8 mph - N/A   Overcast
6:15 AM 66.4 °F 66.4 °F 100% 30.01 in 7.0 mi North 5.8 mph - N/A   Overcast
6:35 AM 66.2 °F 66.2 °F 100% 30.00 in 7.0 mi NNW 8.1 mph - N/A   Overcast
6:55 AM 65.8 °F 65.8 °F 100% 30.00 in 5.0 mi North 5.8 mph - N/A   Overcast
7:15 AM 65.7 °F 65.7 °F 100% 30.02 in 5.0 mi NW 11.5 mph - N/A   Overcast
7:55 AM 64.2 °F 64.2 °F 100% 30.04 in 2.0 mi NNW 17.3 mph 20.7 mph N/A   Overcast
8:15 AM 63.0 °F 63.0 °F 100% 30.04 in 2.5 mi NNW 13.8 mph - N/A Thunderstorm Overcast
8:35 AM 62.1 °F 62.1 °F 100% 30.04 in 7.0 mi NNW 10.4 mph - N/A Rain Rain
8:55 AM 61.9 °F 61.9 °F 100% 30.05 in 7.0 mi NW 11.5 mph - 0.02 in Rain Rain
9:15 AM 61.9 °F 61.9 °F 100% 30.06 in 3.0 mi NW 12.7 mph - 0.07 in Rain , Thunderstorm Heavy Thunderstorms and Rain
9:35 AM 61.7 °F 61.7 °F 100% 30.05 in 10.0 mi NW 11.5 mph - 0.09 in Rain Rain
9:55 AM 62.1 °F 62.1 °F 100% 30.05 in 10.0 mi NW 12.7 mph 17.3 mph 0.09 in   Drizzle
10:15 AM 61.9 °F 61.9 °F 100% 30.06 in 10.0 mi NW 12.7 mph - N/A Rain Light Rain
10:35 AM 62.1 °F 62.1 °F 100% 30.07 in 10.0 mi NW 13.8 mph 17.3 mph N/A   Drizzle
10:55 AM 62.4 °F 62.4 °F 100% 30.06 in 10.0 mi NW 13.8 mph 19.6 mph 0.01 in Rain Rain
11:15 AM 62.8 °F 62.8 °F 100% 30.06 in 10.0 mi NNW 11.5 mph - N/A   Light Drizzle
11:35 AM 62.8 °F 62.8 °F 100% 30.06 in 10.0 mi NNW 10.4 mph - N/A Rain Light Rain
11:55 AM 62.8 °F 62.8 °F 100% 30.06 in 10.0 mi North 10.4 mph - N/A Rain Light Rain
12:15 PM 63.0 °F 63.0 °F 100% 30.05 in 10.0 mi North 8.1 mph - N/A   Overcast
12:35 PM 63.7 °F 63.5 °F 99% 30.04 in 10.0 mi NNE 9.2 mph - N/A   Overcast
12:55 PM 63.7 °F 63.5 °F 99% 30.04 in 10.0 mi NE 13.8 mph - N/A   Light Drizzle
1:15 PM 63.0 °F 62.6 °F 99% 30.04 in 10.0 mi NNE 9.2 mph 16.1 mph N/A Rain Light Rain
1:35 PM 63.1 °F 62.2 °F 97% 30.05 in 10.0 mi North 11.5 mph - N/A   Overcast
1:55 PM 63.1 °F 61.9 °F 96% 30.04 in 10.0 mi North 13.8 mph - N/A   Overcast
2:15 PM 63.5 °F 60.6 °F 90% 30.03 in 10.0 mi North 15.0 mph - N/A   Overcast
2:35 PM 63.7 °F 60.3 °F 89% 30.02 in 10.0 mi NNE 8.1 mph - N/A   Overcast
2:55 PM 64.2 °F 60.6 °F 88% 30.04 in 10.0 mi North 9.2 mph - N/A   Scattered Clouds
3:15 PM 64.6 °F 60.4 °F 86% 30.05 in 10.0 mi NW 4.6 mph - N/A   Mostly Cloudy
3:35 PM 64.6 °F 60.6 °F 87% 30.04 in 10.0 mi West 3.5 mph - N/A   Mostly Cloudy
3:55 PM 64.4 °F 60.6 °F 88% 30.03 in 10.0 mi WNW 3.5 mph - N/A   Scattered Clouds
4:15 PM 64.4 °F 60.6 °F 88% 30.02 in 10.0 mi NW 3.5 mph - N/A   Scattered Clouds
4:35 PM 64.6 °F 60.6 °F 87% 30.02 in 10.0 mi NNW 4.6 mph - N/A   Mostly Cloudy
4:55 PM 65.3 °F 60.8 °F 85% 30.01 in 10.0 mi Calm Calm - N/A   Overcast
5:15 PM 65.5 °F 60.6 °F 84% 30.00 in 10.0 mi NNW 4.6 mph - N/A   Overcast
5:35 PM 65.7 °F 61.0 °F 85% 30.00 in 10.0 mi North 8.1 mph - N/A   Overcast
5:55 PM 66.2 °F 61.3 °F 84% 30.01 in 10.0 mi NNW 8.1 mph - N/A   Overcast
6:15 PM 65.8 °F 61.2 °F 85% 30.01 in 10.0 mi NNW 5.8 mph - N/A   Overcast
6:35 PM 65.8 °F 61.5 °F 86% 30.02 in 10.0 mi NNW 5.8 mph - N/A   Overcast
6:55 PM 66.2 °F 61.5 °F 85% 30.02 in 10.0 mi NNW 10.4 mph - N/A   Overcast
7:15 PM 65.1 °F 61.2 °F 87% 30.02 in 10.0 mi NNW 8.1 mph - N/A   Overcast
7:35 PM 64.6 °F 61.0 °F 88% 30.02 in 10.0 mi NNW 8.1 mph - N/A   Overcast
7:55 PM 64.6 °F 61.0 °F 88% 30.02 in 10.0 mi NNW 8.1 mph - N/A   Overcast
8:15 PM 64.6 °F 61.0 °F 88% 30.03 in 10.0 mi NNW 10.4 mph - N/A   Overcast
8:35 PM 63.9 °F 60.3 °F 88% 30.04 in 10.0 mi NNW 11.5 mph - N/A   Overcast
8:55 PM 63.3 °F 61.0 °F 92% 30.04 in 10.0 mi North 8.1 mph - N/A   Overcast
9:15 PM 63.3 °F 61.9 °F 95% 30.05 in 10.0 mi NNW 3.5 mph - N/A   Overcast
9:35 PM 62.8 °F 62.2 °F 98% 30.05 in 10.0 mi NW 4.6 mph - N/A   Scattered Clouds
9:55 PM 62.2 °F 62.2 °F 100% 30.06 in 10.0 mi NW 6.9 mph - N/A   Clear
10:15 PM 62.1 °F 62.1 °F 100% 30.06 in 10.0 mi NW 4.6 mph - N/A   Clear
10:35 PM 61.9 °F 61.9 °F 100% 30.06 in 10.0 mi NNW 5.8 mph - N/A   Clear
10:55 PM 61.9 °F 61.9 °F 100% 30.05 in 10.0 mi NNW 5.8 mph - N/A   Clear
11:15 PM 61.5 °F 61.5 °F 100% 30.04 in 10.0 mi North 4.6 mph - N/A   Clear
11:35 PM 61.0 °F 61.0 °F 100% 30.05 in 10.0 mi Calm Calm - N/A   Clear
11:55 PM 60.6 °F 60.6 °F 100% 30.05 in 10.0 mi NW 4.6 mph - N/A   Clear